Weather in Huaiyin

China     33°35′41″N   119°02′03″E
temp.,
°C
wind,
m/s
gust,
m/s
humid.,
%
clouds,
%
prec.,
mm/h
press.,
hPa
HPBL,
m
11 may, tue
tue1123:00+16ne71287100 0.0 1008354
02:00+15nne61187100 0.0 1006366
05:00+15ne51087100 0.0 1008475
08:00+16ne5888100 0.0 1009446
11:00+18ne6784100 1.3 1009566
14:00+21ne6772100 1.9 1006729
17:00+21nne6673100 0.0 1007725
20:00+16nne478983 0.0 1008302
12 may, wed
wed1223:00+16ne248898 0.0 1008202
02:00+16nne239198 0.0 1008148
05:00+16n3692100 0.0 1008238
08:00+18ne3486100 0.0 1010319
11:00+22e337192 0.0 1009842
14:00+25e336579 0.0 10081028
17:00+25e4567100 0.0 1007858
20:00+21e61084100 0.0 1008327
13 may, thu
thu1323:00+17ese41095100 0.0 1010351
02:00+16e3897100 0.0 1009229
05:00+15e379728 0.0 1009178
08:00+20e46755 0.0 1010439
11:00+26ese455666 0.0 10091017
14:00+28ese555035 0.0 10061534
17:00+27ese555589 0.0 10051427
20:00+21e51082100 0.0 1007349
14 may, fri
fri1423:00+18ese5119359 0.0 1008319
02:00+17ese4996100 0.0 1007267
05:00+17ene4899100 0.0 1007239
08:00+22ese6980100 0.0 1007464
11:00+26se6769100 0.0 10061032
14:00+25sse5778100 0.4 1004807
17:00+22sse3898100 4.1 1003315
20:00+22se3997100 5.5 1003329
15 may, sat
sat1523:00+22se3998100 0.9 1003377
02:00+22se3799100 2.4 1002328
05:00+22sse3899100 1.6 1001326
08:00+23sw51093100 2.3 1002561
11:00+24sw578571 0.3 1003626
14:00+25wsw2483100 1.1 1001371
17:00+25w1288100 1.4 1001138
20:00+23ene3598100 6.7 1002162